IRIDIUM 33 DEB, 35915

Orbit data source: Space-Track

IRIDIUM 33 DEB, 35915 is space debris in LEO originally from a launch on Sun, 14 Sep 1997 UTC launched from the Tyuratam Missile And Space Complex (TTMTR). The debris from Iridium 33, an American commercial communications satellite, has been tracked extensively since its accidental collision with the defunct Russian satellite Cosmos 2251 in 2009. This event, occurring at high speed in low Earth orbit (LEO), generated thousands of pieces of space debris, significantly increasing the risk of further collisions. The Iridium 33 debris cloud has impacted space traffic management and orbital debris mitigation strategies, making it a subject of ongoing study in space situational awareness.

Loading next visibility...
Identifier
35915, 1997-051TY
Orbit
LEO
Country
Flag of USUS
Related business
Manufacturer
Unknown
Mission
Spacecraft
Bus & Motor
Unknown
Mass
Unknown
Launch date (UTC)
1997-09-14 (28 years ago)
Launch vehicle
Unknown
Launch site
Tyuratam Missile And Space Complex (TTMTR)
Object type
Payload
Rocket body
Debris
Shape & HBR
Unknown shape, 0.1 m
Radar Cross Section
Small (<0.1 m²)

Expand to show TLE details & history
Last TLE update: 2 days ago

TLE from 2 days ago
0 IRIDIUM 33 DEB
1 35915U 97051TY  25349.72610465  .00008810  00000-0  11378-2 0  9998
2 35915  86.3436 341.5930 0011254 174.6839 185.4504 14.80816607 81301
Epoch: 2025-12-15T17:25Z
TLE epoch observation values (Epoch: 2025-12-15T17:25:35.441Z)
Latitude
-0.00006°
Longitude
-4.42521°
Altitude
637.713 km
Speed
7.535 km/s
True Right ascension
22h 46m 22s
True Declination
0° 00' 00"
Sunlit
Object was in daylight at epoch
Visualization orbit readout
Latitude
Unknown
Longitude
Unknown
Altitude
Unknown
Speed
Unknown
Apparent Right ascension
Unknown
Apparent Declination
Unknown
Sunlit
N/A
Visualization observer readout
Local Sidereal Time
10:16:08
Azimuth
Unknown
Elevation
Unknown
Doppler factor
Unknown
Orbital elements
Apogee altitude
631.528 km
Perigee altitude
615.768 km
Semi-major axis
7,001.785 km
Eccentricity
0.00113
Inclination
86.3436°
RAAN
341.593°
Arg. of periapsis
174.6839°
True anomaly
185.43817°
Mean anomaly
185.4504°
Eccentric anomaly
185.44428°
Mean motion
3.7045 °/min
Orbital period
97.18 mins
BSTAR
0.0011378
Loading maneuver chart data...
Computing Atmospheric mass density...

Documentation

Showing up to 5 results
|